{"data":{"norad_id":67082,"epoch":"2026-05-25T03:49:16.314240Z","epoch_age_seconds":64731,"freshness":"FRESH","line1":"1 67082U 25298H   26145.15921660  .00003117  00000+0  26880-3 0  9995","line2":"2 67082  70.0016 181.5769 0004002 265.7290  94.3411 14.98338953 24677","mean_motion":14.98338953,"eccentricity":0.0004002,"inclination_deg":70.0016,"raan_deg":181.5769,"arg_perigee_deg":265.729,"mean_anomaly_deg":94.3411,"bstar":0.0002688,"rev_number":2467,"period_min":96.106424859129,"perigee_km":569.24674855341,"apogee_km":574.80966078322,"semimajor_km":6950.1652046683,"source":"CELESTRAK","updated_at":"2026-05-25T13:38:21.466115Z"}}